User: anonymous   Login
Location: *
(51.8167°N, 12.5000°E)
Time: 16:06:53
(UTC+00:00)
Language:

Cosmos 614 Rocket - Orbit

View from above orbital plane
View from above orbital plane
View from above satellite
View from above satellite

Ground track
Ground track

The orbit data is extracted from the following two-line orbital elements,

1  6966U 73098B   19318.51639975  .00000051  00000-0  23183-4 0  9998
2  6966  74.0581  29.0335 0020516 145.4086 214.8410 14.43010430412511
Epoch (UTC): 14 November 2019 12:23:36
Eccentricity: 0.0020516
inclination: 74.0581°
perigee height: 734 km
apogee height: 763 km
right ascension of ascending node: 29.0335°
argument of perigee: 145.4086°
revolutions per day: 14.43010430
mean anomaly at epoch: 214.8410°
orbit number at epoch: 41251

The dashed part of the orbit path shows where the satellite is in the earth's shadow,  

DLR